Palos Park, Illinois, United States (60464)
Lat: 41.67N, Lon: 87.83W
Wx Zone: ILZ014
Local Info
Past Weather Observations for Saturday, October 25, 2014

NOTE: This archive is for the closest National Weather Service station to Palos Park. Information may differ from the station used for current weather conditions.

Click here for Long-term Archive

Time Weather Temperature Dewpoint Humidity Pressure Winds Precip Visibility
23:53
Clear
54°F / 12°C 30°F / -1°C 41% 29.98 in
(1015 mb)
WNW 5.8 mph
(WNW 9 kph)
- 10SM
22:53
Clear
54°F / 12°C 30°F / -1°C 41% 29.98 in
(1015 mb)
NW 5.8 mph
(NW 9 kph)
- 10SM
21:53
Clear
57°F / 14°C 30°F / -1°C 36% 29.98 in
(1015 mb)
WNW 8.1 mph
(WNW 13 kph)
- 10SM
20:53
Clear
59°F / 15°C 30°F / -1°C 34% 29.98 in
(1015 mb)
W 6.9 mph
(W 11 kph)
- 10SM
19:53
Clear
63°F / 17°C 30°F / -1°C 30% 29.98 in
(1015 mb)
NW 10.4 mph
(NW 17 kph)
- 10SM
18:53
Clear
64°F / 18°C 28°F / -2°C 26% 29.95 in
(1014 mb)
W 10.4 mph
(W 17 kph)
- 10SM
17:53
Clear
66°F / 19°C 27°F / -3°C 22% 29.92 in
(1013 mb)
WNW 11.5 mph
(WNW 19 kph)
- 10SM
16:53
Clear
70°F / 21°C 27°F / -3°C 20% 29.92 in
(1013 mb)
WNW 11.5 mph
(WNW 19 kph)
- 10SM
15:53
Partly Cloudy
72°F / 22°C 28°F / -2°C 20% 29.92 in
(1013 mb)
WNW 16.1 mph
(WNW 26 kph)
- 10SM
14:53
Partly Cloudy
73°F / 23°C 28°F / -2°C 19% 29.92 in
(1013 mb)
WNW 18.4 mph
(WNW 30 kph)
- 10SM
13:53
Partly Cloudy
73°F / 23°C 34°F / 1°C 23% 29.92 in
(1013 mb)
W 16.1 mph
(W 26 kph)
- 10SM
12:53
Partly Cloudy
73°F / 23°C 36°F / 2°C 25% 29.92 in
(1013 mb)
WNW 13.8 mph
(WNW 22 kph)
- 10SM
11:53
Partly Cloudy
72°F / 22°C 43°F / 6°C 36% 29.95 in
(1014 mb)
W 11.5 mph
(W 19 kph)
- 10SM
10:53
Partly Cloudy
72°F / 22°C 45°F / 7°C 38% 29.95 in
(1014 mb)
NW 15 mph
(NW 24 kph)
- 10SM
09:53
Partly Cloudy
66°F / 19°C 52°F / 11°C 60% 29.95 in
(1014 mb)
NW 12.7 mph
(NW 20 kph)
- 10SM
08:53
Partly Cloudy
64°F / 18°C 54°F / 12°C 68% 29.95 in
(1014 mb)
W 15 mph
(W 24 kph)
- 10SM
07:53
Partly Cloudy
Hazy
61°F / 16°C 55°F / 13°C 83% 29.95 in
(1014 mb)
W 10.4 mph
(W 17 kph)
- 6SM
06:53
Partly Cloudy
Fog And Mist
55°F / 13°C 54°F / 12°C 94% 29.92 in
(1013 mb)
SW 5.8 mph
(SW 9 kph)
- 4SM
06:34
Mostly Cloudy
Fog And Mist
57°F / 14°C 54°F / 12°C 88% 29.92 in
(1013 mb)
SSW 4.6 mph
(SSW 7 kph)
- 4SM
05:53
Overcast
Fog And Mist
57°F / 14°C 55°F / 13°C 94% 29.92 in
(1013 mb)
SSW 4.6 mph
(SSW 7 kph)
- 3SM
04:53
Overcast
Fog And Mist
57°F / 14°C 55°F / 13°C 94% 29.92 in
(1013 mb)
WNW 13.8 mph
(WNW 22 kph)
- 3SM
04:23
Overcast
Fog And Mist
57°F / 14°C 54°F / 12°C 88% 29.92 in
(1013 mb)
WNW 10.4 mph
(WNW 17 kph)
- 5SM
03:53
Overcast
57°F / 14°C 54°F / 12°C 88% 29.92 in
(1013 mb)
W 5.8 mph
(W 9 kph)
- 7SM
02:53
Overcast
57°F / 14°C 54°F / 12°C 88% 29.92 in
(1013 mb)
SSW 6.9 mph
(SSW 11 kph)
- 8SM
01:53
Mostly Cloudy
57°F / 14°C 52°F / 11°C 82% 29.89 in
(1012 mb)
SSW 5.8 mph
(SSW 9 kph)
- 9SM
00:53
Mostly Cloudy
59°F / 15°C 52°F / 11°C 77% 29.92 in
(1013 mb)
SW 6.9 mph
(SW 11 kph)
- 10SM
Time Weather Temperature Dewpoint Humidity Pressure Winds Precip Visibility


Weather for websites

WeatherForYou.com, LLC is not responsible for any damages or problems caused by this service. Current weather conditions are obtained from the closest station including government and personal stations which may have varying degrees of accuracy. Weather forecasts are derived from the NOAA NDFD. Like all things, this site belongs to Jesus Christ... He just trusts me to maintain it. If you have any questions or comments email webmaster@weatherforyou.com

Copyright © 2014, WeatherForYou.com LLC. All rights reserved.